TimeIST,TemperatureF,Dew PointF,Humidity,Sea Level PressureIn,VisibilityMPH,Wind Direction,Wind SpeedMPH,Gust SpeedMPH,PrecipitationIn,Events,Conditions,WindDirDegrees,DateUTC
12:00 AM,66.2,50.0,56,29.98,1.2,West,4.6,-,N/A,,Mist,260,2013-12-04 18:30:00
2:00 AM,53.6,48.2,82,29.95,0.9,Calm,Calm,-,N/A,,Mist,0,2013-12-04 20:30:00
2:30 AM,54,48,74,29.99,1,Calm,Calm,,,,Mist,,2013-12-04 21:00:00
3:00 AM,51.8,48.2,88,29.95,0.8,Calm,Calm,-,N/A,,Mist,0,2013-12-04 21:30:00
4:00 AM,50.0,48.2,94,29.95,0.6,Calm,Calm,-,N/A,Fog,Shallow Fog,0,2013-12-04 22:30:00
5:00 AM,50.0,46.4,87,29.95,0.6,WSW,3.5,-,N/A,Fog,Shallow Fog,250,2013-12-04 23:30:00
5:30 AM,52,49,84,29.98,0,WSW,3.5,,,Fog,Partial Fog,250,2013-12-05 00:00:00
6:00 AM,50.0,48.2,94,29.95,0.5,Variable,2.3,-,N/A,Fog,Shallow Fog,0,2013-12-05 00:30:00
6:30 AM,50.0,46.4,87,29.98,0.5,WSW,3.5,-,N/A,Fog,Shallow Fog,250,2013-12-05 01:00:00
7:00 AM,51.8,48.2,88,29.98,0.5,West,3.5,-,N/A,Fog,Shallow Fog,260,2013-12-05 01:30:00
7:30 AM,53.6,48.2,82,29.98,0.5,West,2.3,-,N/A,Fog,Shallow Fog,270,2013-12-05 02:00:00
8:00 AM,53.6,48.2,82,30.01,0.5,West,3.5,-,N/A,Fog,Shallow Fog,270,2013-12-05 02:30:00
8:30 AM,57,48,64,30.04,0,West,3.5,,,Fog,Patches of Fog,270,2013-12-05 03:00:00
8:30 AM,57.2,48.2,72,30.01,0.6,West,3.5,-,N/A,Fog,Shallow Fog,270,2013-12-05 03:00:00
9:30 AM,62.6,50.0,63,30.04,0.9,NW,3.5,-,N/A,,Mist,320,2013-12-05 04:00:00
10:00 AM,66.2,50.0,56,30.04,1.2,NW,3.5,-,N/A,,Mist,320,2013-12-05 04:30:00
10:30 AM,68.0,50.0,52,30.01,1.2,NNW,3.5,-,N/A,,Mist,330,2013-12-05 05:00:00
11:00 AM,69.8,50.0,49,30.01,1.6,WNW,5.8,-,N/A,,Haze,290,2013-12-05 05:30:00
11:30 AM,73,52,37,30.01,1,WNW,4.6,,,,Haze,290,2013-12-05 06:00:00
11:30 AM,73.4,51.8,47,30.01,1.6,WNW,4.6,-,N/A,,Haze,290,2013-12-05 06:00:00
12:30 PM,75.2,51.8,44,29.95,1.9,NW,5.8,-,N/A,,Haze,310,2013-12-05 07:00:00
1:00 PM,77.0,51.8,41,29.95,1.9,NW,5.8,-,N/A,,Haze,320,2013-12-05 07:30:00
2:00 PM,77.0,51.8,41,29.92,1.9,NW,5.8,-,N/A,,Haze,320,2013-12-05 08:30:00
2:30 PM,77.0,51.8,41,29.89,1.9,NW,6.9,-,N/A,,Haze,320,2013-12-05 09:00:00
3:00 PM,77.0,51.8,41,29.89,1.9,NW,9.2,-,N/A,,Haze,310,2013-12-05 09:30:00
3:30 PM,77.0,53.6,44,29.89,1.9,WNW,5.8,-,N/A,,Haze,300,2013-12-05 10:00:00
4:00 PM,77.0,53.6,44,29.89,1.9,NW,4.6,-,N/A,,Haze,310,2013-12-05 10:30:00
4:30 PM,75.2,53.6,47,29.89,1.9,NW,4.6,-,N/A,,Haze,310,2013-12-05 11:00:00
5:00 PM,73.4,53.6,50,29.89,1.9,West,3.5,-,N/A,,Haze,280,2013-12-05 11:30:00
5:30 PM,70,54,47,29.90,1,West,4.6,,,,Haze,270,2013-12-05 12:00:00
5:30 PM,69.8,53.6,56,29.89,1.9,West,4.6,-,N/A,,Haze,260,2013-12-05 12:00:00
6:00 PM,69.8,53.6,56,29.89,1.6,West,3.5,-,N/A,,Haze,260,2013-12-05 12:30:00
6:30 PM,68.0,53.6,60,29.89,1.6,West,4.6,-,N/A,,Haze,260,2013-12-05 13:00:00
7:00 PM,66.2,55.4,68,29.89,1.2,West,3.5,-,N/A,,Haze,260,2013-12-05 13:30:00
7:30 PM,66.2,50.0,56,29.89,1.2,West,4.6,-,N/A,,Haze,270,2013-12-05 14:00:00
8:00 PM,64.4,51.8,64,29.92,1.2,West,4.6,-,N/A,,Haze,260,2013-12-05 14:30:00
8:30 PM,62,50,55,29.94,1,West,4.6,,,,Haze,270,2013-12-05 15:00:00
8:30 PM,62.6,50.0,63,29.92,1.2,West,4.6,-,N/A,,Haze,270,2013-12-05 15:00:00
9:00 PM,60.8,50.0,68,29.92,1.2,WSW,4.6,-,N/A,,Haze,250,2013-12-05 15:30:00
10:00 PM,59.0,50.0,72,29.92,1.2,West,3.5,-,N/A,,Haze,260,2013-12-05 16:30:00
11:00 PM,57.2,50.0,77,29.92,1.2,Calm,Calm,-,N/A,,Haze,0,2013-12-05 17:30:00
11:30 PM,56,49,72,29.95,1,SW,1.2,,,,Mist,230,2013-12-05 18:00:00